Regional Weather Roundup
Issued by NWS Tiyan, Guam

Home | Current Version | Previous Version | Text Only | Print | Product List | Glossary On
Versions: 1 2 3 4 5 6 7 8 9 10 11 12 13
000
ASGM40 PGUM 010912
RWRGUM
WEATHER ROUNDUP FOR THE MARIANAS
NATIONAL WEATHER SERVICE TIYAN GU
700 PM CHST WED OCT 01 2014

GUZ001>004-011000-
MARIANA ISLANDS-

CITY           SKY/WX    TMP DP  RH WIND       PRES   REMARKS
GUAM AIRPORT   MOCLDY    81  77  89 S8G17     29.63R
ANDERSEN AFB   LGT RAIN  79  75  89 SW13      29.63R
ROTA AIRPORT   MOCLDY    81  77  89 S14         N/A
TINIAN AP      LGT RAIN  81  79  94 SW13      29.59R
SAIPAN AP      MOCLDY    82  79  89 S15G26    29.60R HX  93

$$




USA.gov is the U.S. government's official web portal to all federal, state and local government web resources and services.